Location: Unspecified
(0.0000°N, 0.0000°E)
Time: 22:02:15
(UTC+00:00)

STARLINK-1166 - Visible Passes

Search period start: 12 January 2025 00:00
Search period end: 22 January 2025 00:00
Orbit: 546 x 548 km, 53.1° (Epoch: 12 January)

Date Brightness Start Highest point End Pass type
(mag) Time Alt. Az. Time Alt. Az. Time Alt. Az.
12 Jan 4.8 05:16:42 10° NNW 05:20:34 39° NE 05:24:26 10° SE visible
13 Jan 3.9 05:10:37 13° NNW 05:14:14 64° ENE 05:18:19 10° SE visible
14 Jan 3.5 05:05:18 22° NW 05:07:51 78° SW 05:11:59 10° SSE visible
15 Jan 3.9 04:59:57 31° WNW 05:01:27 48° SW 05:05:26 10° SSE visible
16 Jan 4.5 04:54:31 29° WSW 04:55:01 30° SW 04:58:41 10° S visible
17 Jan 5.3 04:49:00 20° SW 04:49:00 20° SW 04:51:38 10° S visible
18 Jan 6.0 04:43:23 12° SW 04:43:23 12° SW 04:44:05 10° SSW visible
